QPF
0.00 0.00 0.00 0.00 0.00 0.00 0.00 0.00 0.00 0.00 0.00 0.00 0.00 0.00 0.00 0.00 0.00 0.00 0.00 0.00 0.00 0.00 0.00 0.00 0.00 0.00 0.01 0.01 0.01 0.02 0.02 0.01 0.01 0.00 0.00 0.00 0.00 0.00 0.00 0.00 0.00 0.00 0.00
0.00 0.00 0.00 0.00 0.00 0.00 0.00 0.00 0.00 0.00 0.00 0.00 0.00 0.00 0.00 0.00 0.00 0.00 0.00 0.00 0.00 0.00 0.00 0.00 0.00 0.00 0.01 0.01 0.02 0.02 0.02 0.02 0.01 0.01 0.00 0.00 0.00 0.00 0.00 0.00 0.00 0.00 0.00
0.00 0.00 0.00 0.00 0.00 0.00 0.00 0.00 0.00 0.00 0.00 0.00 0.00 0.00 0.00 0.00 0.00 0.00 0.00 0.00 0.00 0.00 0.00 0.00 0.00 0.00 0.00 0.01 0.01 0.02 0.01 0.01 0.01 0.01 0.01 0.00 0.00 0.00 0.00 0.00 0.00 0.00 0.01
0.00 0.00 0.00 0.00 0.00 0.00 0.00 0.00 0.00 0.00 0.00 0.00 0.00 0.00 0.00 0.00 0.00 0.00 0.00 0.00 0.00 0.00 0.00 0.00 0.00 0.00 0.00 0.01 0.01 0.01 0.01 0.01 0.01 0.01 0.01 0.01 0.01 0.01 0.01 0.01 0.01 0.01 0.01
0.00 0.00 0.00 0.00 0.00 0.01 0.01 0.01 0.01 0.01 0.01 0.01 0.00 0.00 0.00 0.00 0.00 0.00 0.00 0.00 0.00 0.00 0.00 0.00 0.00 0.00 0.00 0.00 0.01 0.01 0.02 0.02 0.02 0.01 0.01 0.01 0.01 0.01 0.01 0.02 0.02 0.02 0.01
0.00 0.00 0.00 0.01 0.01 0.01 0.01 0.01 0.02 0.02 0.02 0.02 0.01 0.01 0.00 0.00 0.00 0.00 0.00 0.00 0.00 0.00 0.00 0.00 0.00 0.00 0.00 0.00 0.00 0.01 0.01 0.02 0.02 0.02 0.02 0.01 0.01 0.01 0.01 0.02 0.02 0.02 0.02
0.01 0.01 0.01 0.02 0.02 0.02 0.02 0.02 0.02 0.02 0.03 0.03 0.02 0.01 0.00 0.00 0.00 0.00 0.00 0.00 0.00 0.00 0.00 0.00 0.00 0.00 0.00 0.00 0.00 0.00 0.01 0.01 0.01 0.02 0.02 0.02 0.01 0.02 0.02 0.02 0.03 0.03 0.03
0.02 0.02 0.02 0.02 0.03 0.03 0.03 0.05 0.05 0.05 0.04 0.04 0.03 0.02 0.01 0.01 0.00 0.01 0.01 0.01 0.00 0.00 0.00 0.00 0.00 0.00 0.00 0.00 0.00 0.00 0.00 0.01 0.01 0.01 0.02 0.02 0.02 0.03 0.03 0.03 0.04 0.04 0.04
0.03 0.03 0.03 0.04 0.05 0.05 0.06 0.09 0.10 0.10 0.07 0.07 0.06 0.04 0.02 0.01 0.01 0.01 0.00 0.00 0.00 0.00 0.00 0.00 0.00 0.00 0.00 0.00 0.00 0.00 0.00 0.00 0.01 0.02 0.02 0.02 0.03 0.03 0.03 0.04 0.04 0.05 0.05
0.04 0.04 0.04 0.06 0.07 0.08 0.09 0.11 0.13 0.12 0.12 0.10 0.08 0.06 0.03 0.03 0.02 0.01 0.01 0.00 0.00 0.00 0.00 0.00 0.00 0.00 0.00 0.00 0.00 0.00 0.00 0.00 0.01 0.02 0.03 0.03 0.03 0.04 0.04 0.04 0.05 0.06 0.06
0.08 0.06 0.06 0.08 0.08 0.09 0.10 0.11 0.12 0.12 0.12 0.11 0.09 0.07 0.05 0.04 0.02 0.01 0.01 0.00 0.00 0.00 0.00 0.00 0.00 0.00 0.00 0.00 0.00 0.00 0.00 0.00 0.01 0.02 0.03 0.03 0.03 0.03 0.03 0.03 0.05 0.06 0.06
0.11 0.10 0.09 0.10 0.10 0.09 0.09 0.11 0.12 0.13 0.13 0.11 0.10 0.08 0.06 0.05 0.04 0.04 0.03 0.02 0.01 0.01 0.00 0.00 0.00 0.00 0.00 0.00 0.00 0.00 0.00 0.00 0.01 0.02 0.03 0.03 0.02 0.02 0.02 0.02 0.04 0.05 0.05
0.13 0.12 0.12 0.11 0.11 0.10 0.11 0.11 0.12 0.12 0.10 0.09 0.08 0.08 0.07 0.06 0.05 0.05 0.04 0.02 0.01 0.01 0.00 0.00 0.00 0.00 0.00 0.00 0.00 0.00 0.00 0.00 0.00 0.01 0.02 0.02 0.01 0.01 0.01 0.02 0.02 0.04 0.04
0.15 0.15 0.14 0.13 0.13 0.13 0.13 0.12 0.11 0.10 0.09 0.08 0.07 0.06 0.05 0.04 0.04 0.04 0.03 0.03 0.02 0.01 0.00 0.00 0.00 0.00 0.00 0.00 0.00 0.00 0.00 0.00 0.00 0.00 0.01 0.01 0.00 0.01 0.01 0.01 0.02 0.03 0.03
0.17 0.16 0.16 0.16 0.15 0.15 0.14 0.13 0.10 0.08 0.07 0.05 0.04 0.04 0.04 0.04 0.03 0.03 0.02 0.02 0.01 0.01 0.00 0.00 0.00 0.00 0.00 0.00 0.00 0.00 0.00 0.00 0.00 0.00 0.00 0.00 0.00 0.01 0.01 0.01 0.01 0.02 0.02
0.13 0.14 0.15 0.16 0.14 0.14 0.13 0.12 0.09 0.07 0.06 0.04 0.04 0.03 0.03 0.02 0.02 0.02 0.02 0.02 0.01 0.01 0.01 0.01 0.00 0.00 0.00 0.00 0.00 0.00 0.00 0.01 0.00 0.00 0.00 0.00 0.01 0.00 0.00 0.01 0.01 0.02 0.02
0.10 0.10 0.12 0.13 0.13 0.12 0.11 0.11 0.10 0.08 0.06 0.05 0.04 0.03 0.02 0.02 0.02 0.02 0.02 0.01 0.01 0.01 0.01 0.01 0.01 0.00 0.00 0.00 0.00 0.00 0.00 0.00 0.00 0.00 0.00 0.00 0.00 0.00 0.01 0.01 0.01 0.02 0.01
0.08 0.07 0.07 0.08 0.09 0.10 0.09 0.09 0.09 0.09 0.07 0.06 0.04 0.03 0.02 0.02 0.01 0.01 0.01 0.01 0.01 0.01 0.01 0.01 0.00 0.00 0.00 0.00 0.00 0.00 0.00 0.00 0.00 0.01 0.00 0.00 0.00 0.00 0.01 0.01 0.01 0.02 0.02
0.08 0.06 0.05 0.05 0.05 0.04 0.04 0.04 0.04 0.04 0.03 0.03 0.03 0.02 0.02 0.01 0.01 0.01 0.01 0.01 0.00 0.00 0.00 0.00 0.00 0.00 0.00 0.00 0.00 0.00 0.00 0.00 0.00 0.00 0.01 0.00 0.00 0.00 0.00 0.01 0.01 0.01 0.02
0.04 0.04 0.04 0.03 0.02 0.02 0.02 0.01 0.01 0.01 0.01 0.01 0.01 0.01 0.01 0.01 0.01 0.01 0.01 0.01 0.00 0.00 0.00 0.00 0.00 0.00 0.00 0.00 0.00 0.00 0.00 0.00 0.00 0.00 0.00 0.00 0.00 0.00 0.00 0.01 0.01 0.01 0.01
0.02 0.02 0.01 0.01 0.01 0.01 0.01 0.01 0.01 0.01 0.00 0.00 0.00 0.00 0.00 0.01 0.00 0.00 0.00 0.00 0.00 0.00 0.00 0.00 0.00 0.00 0.00 0.00 0.00 0.00 0.00 0.00 0.00 0.00 0.00 0.00 0.00 0.00 0.00 0.00 0.00 0.00 0.00
0.01 0.01 0.01 0.01 0.01 0.00 0.00 0.00 0.00 0.00 0.00 0.00 0.01 0.01 0.01 0.01 0.01 0.00 0.00 0.00 0.00 0.00 0.00 0.00 0.00 0.00 0.00 0.00 0.00 0.00 0.00 0.00 0.00 0.00 0.00 0.00 0.00 0.01 0.00 0.00 0.00 0.00 0.00
0.01 0.01 0.01 0.01 0.00 0.00 0.01 0.01 0.01 0.00 0.00 0.01 0.01 0.01 0.01 0.01 0.01 0.01 0.01 0.01 0.00 0.00 0.00 0.00 0.00 0.00 0.00 0.00 0.00 0.00 0.00 0.00 0.00 0.00 0.00 0.00 0.00 0.00 0.00 0.00 0.00 0.00 0.00
0.02 0.02 0.01 0.01 0.01 0.01 0.01 0.01 0.01 0.01 0.01 0.01 0.01 0.01 0.01 0.01 0.01 0.01 0.01 0.01 0.00 0.00 0.00 0.00 0.00 0.00 0.00 0.00 0.00 0.00 0.00 0.00 0.00 0.00 0.00 0.00 0.00 0.00 0.00 0.00 0.00 0.00 0.00
0.01 0.01 0.01 0.01 0.01 0.01 0.01 0.02 0.02 0.01 0.01 0.01 0.01 0.01 0.01 0.00 0.01 0.01 0.00 0.00 0.00 0.00 0.00 0.00 0.00 0.00 0.00 0.00 0.00 0.00 0.00 0.00 0.00 0.00 0.00 0.00 0.00 0.00 0.00 0.00 0.00 0.00 0.00
0.00 0.00 0.00 0.00 0.01 0.01 0.02 0.02 0.02 0.02 0.02 0.01 0.01 0.01 0.01 0.01 0.01 0.01 0.01 0.00 0.00 0.00 0.00 0.00 0.00 0.00 0.00 0.00 0.00 0.00 0.00 0.00 0.00 0.00 0.00 0.00 0.00 0.00 0.00 0.00 0.00 0.00 0.00
MSLP
1015.15 1015.59 1016.00 1016.39 1016.76 1017.10 1017.38 1017.60 1017.75 1017.82 1017.82 1017.79 1017.74 1017.70 1017.71 1017.78 1017.90 1018.09 1018.30 1018.52 1018.72 1018.88 1018.99 1019.03 1019.02 1018.97 1018.89 1018.82 1018.76 1018.73 1018.75 1018.82 1018.93 1019.07 1019.23 1019.37 1019.49 1019.57 1019.61 1019.61 1019.57 1019.52 1019.47
1014.72 1015.14 1015.57 1015.99 1016.40 1016.77 1017.09 1017.33 1017.50 1017.58 1017.59 1017.56 1017.52 1017.50 1017.51 1017.59 1017.73 1017.91 1018.13 1018.34 1018.54 1018.69 1018.78 1018.81 1018.79 1018.72 1018.63 1018.55 1018.48 1018.45 1018.47 1018.54 1018.66 1018.82 1019.00 1019.18 1019.33 1019.44 1019.50 1019.51 1019.49 1019.44 1019.39
1014.23 1014.65 1015.10 1015.55 1016.01 1016.43 1016.81 1017.10 1017.31 1017.43 1017.48 1017.48 1017.46 1017.45 1017.48 1017.56 1017.69 1017.85 1018.04 1018.23 1018.39 1018.51 1018.58 1018.60 1018.57 1018.50 1018.41 1018.32 1018.25 1018.22 1018.24 1018.31 1018.43 1018.59 1018.77 1018.96 1019.13 1019.26 1019.34 1019.36 1019.35 1019.31 1019.27
1013.76 1014.19 1014.65 1015.14 1015.65 1016.13 1016.57 1016.93 1017.21 1017.39 1017.49 1017.53 1017.55 1017.57 1017.60 1017.67 1017.78 1017.91 1018.06 1018.19 1018.31 1018.39 1018.43 1018.43 1018.40 1018.34 1018.26 1018.18 1018.12 1018.09 1018.10 1018.16 1018.26 1018.41 1018.58 1018.76 1018.93 1019.06 1019.15 1019.19 1019.18 1019.14 1019.10
1013.37 1013.80 1014.29 1014.81 1015.35 1015.89 1016.39 1016.81 1017.16 1017.41 1017.58 1017.68 1017.74 1017.79 1017.84 1017.90 1017.98 1018.06 1018.15 1018.23 1018.29 1018.33 1018.35 1018.34 1018.31 1018.27 1018.22 1018.17 1018.12 1018.09 1018.09 1018.13 1018.20 1018.31 1018.45 1018.61 1018.76 1018.88 1018.97 1019.01 1019.01 1018.97 1018.92
1013.12 1013.55 1014.04 1014.57 1015.14 1015.70 1016.24 1016.72 1017.13 1017.45 1017.68 1017.85 1017.96 1018.05 1018.11 1018.17 1018.22 1018.26 1018.30 1018.32 1018.33 1018.34 1018.34 1018.33 1018.33 1018.31 1018.30 1018.28 1018.25 1018.23 1018.21 1018.21 1018.24 1018.31 1018.40 1018.51 1018.63 1018.73 1018.81 1018.85 1018.85 1018.81 1018.76
1013.02 1013.45 1013.92 1014.44 1015.00 1015.56 1016.11 1016.62 1017.06 1017.43 1017.72 1017.95 1018.12 1018.25 1018.34 1018.40 1018.44 1018.45 1018.45 1018.43 1018.42 1018.40 1018.40 1018.41 1018.43 1018.46 1018.49 1018.50 1018.49 1018.47 1018.44 1018.40 1018.38 1018.38 1018.41 1018.47 1018.54 1018.62 1018.69 1018.73 1018.72 1018.68 1018.62
1013.06 1013.46 1013.91 1014.39 1014.90 1015.44 1015.96 1016.46 1016.91 1017.31 1017.65 1017.93 1018.15 1018.33 1018.45 1018.53 1018.58 1018.58 1018.56 1018.53 1018.51 1018.50 1018.51 1018.55 1018.61 1018.69 1018.76 1018.80 1018.82 1018.79 1018.73 1018.65 1018.57 1018.50 1018.47 1018.47 1018.50 1018.56 1018.61 1018.65 1018.65 1018.61 1018.53
1013.18 1013.56 1013.95 1014.37 1014.82 1015.29 1015.76 1016.22 1016.66 1017.06 1017.42 1017.74 1018.02 1018.24 1018.41 1018.53 1018.59 1018.62 1018.61 1018.60 1018.59 1018.60 1018.64 1018.72 1018.83 1018.95 1019.06 1019.13 1019.16 1019.12 1019.03 1018.91 1018.77 1018.64 1018.55 1018.50 1018.49 1018.53 1018.58 1018.62 1018.63 1018.59 1018.50
1013.32 1013.65 1013.99 1014.34 1014.70 1015.09 1015.48 1015.88 1016.29 1016.67 1017.05 1017.39 1017.71 1017.98 1018.20 1018.37 1018.48 1018.55 1018.58 1018.60 1018.63 1018.68 1018.77 1018.90 1019.05 1019.21 1019.35 1019.44 1019.47 1019.42 1019.31 1019.14 1018.95 1018.77 1018.63 1018.54 1018.51 1018.53 1018.59 1018.64 1018.67 1018.64 1018.56
1013.40 1013.69 1013.97 1014.24 1014.52 1014.82 1015.13 1015.47 1015.82 1016.19 1016.56 1016.92 1017.27 1017.58 1017.86 1018.08 1018.25 1018.38 1018.47 1018.55 1018.64 1018.74 1018.88 1019.05 1019.24 1019.43 1019.59 1019.69 1019.71 1019.65 1019.52 1019.32 1019.09 1018.88 1018.70 1018.59 1018.56 1018.58 1018.65 1018.72 1018.77 1018.77 1018.69
1013.37 1013.63 1013.85 1014.05 1014.26 1014.48 1014.72 1015.00 1015.30 1015.64 1016.00 1016.38 1016.75 1017.11 1017.44 1017.72 1017.96 1018.15 1018.31 1018.46 1018.61 1018.77 1018.96 1019.17 1019.39 1019.60 1019.77 1019.87 1019.89 1019.82 1019.66 1019.45 1019.21 1018.98 1018.79 1018.68 1018.64 1018.68 1018.77 1018.87 1018.94 1018.96 1018.89
1013.22 1013.44 1013.62 1013.78 1013.93 1014.09 1014.28 1014.51 1014.78 1015.10 1015.45 1015.83 1016.23 1016.62 1016.99 1017.33 1017.63 1017.89 1018.12 1018.34 1018.55 1018.77 1019.01 1019.25 1019.49 1019.71 1019.88 1019.98 1020.00 1019.93 1019.77 1019.56 1019.32 1019.10 1018.92 1018.82 1018.80 1018.85 1018.95 1019.08 1019.17 1019.21 1019.15
1012.96 1013.16 1013.31 1013.44 1013.56 1013.69 1013.85 1014.06 1014.31 1014.61 1014.95 1015.34 1015.74 1016.16 1016.56 1016.95 1017.30 1017.63 1017.93 1018.21 1018.49 1018.76 1019.04 1019.31 1019.57 1019.79 1019.96 1020.06 1020.08 1020.01 1019.87 1019.68 1019.46 1019.27 1019.11 1019.03 1019.03 1019.10 1019.22 1019.35 1019.46 1019.50 1019.44
1012.64 1012.82 1012.96 1013.08 1013.19 1013.32 1013.48 1013.67 1013.91 1014.20 1014.55 1014.93 1015.34 1015.77 1016.19 1016.61 1017.01 1017.39 1017.75 1018.09 1018.42 1018.75 1019.06 1019.35 1019.62 1019.84 1020.01 1020.11 1020.14 1020.09 1019.98 1019.83 1019.65 1019.50 1019.38 1019.33 1019.34 1019.42 1019.54 1019.68 1019.78 1019.82 1019.75
1012.33 1012.49 1012.63 1012.76 1012.88 1013.02 1013.18 1013.38 1013.62 1013.92 1014.25 1014.63 1015.03 1015.46 1015.90 1016.34 1016.77 1017.19 1017.60 1017.99 1018.37 1018.73 1019.07 1019.38 1019.66 1019.89 1020.06 1020.17 1020.21 1020.19 1020.12 1020.01 1019.90 1019.79 1019.72 1019.69 1019.72 1019.80 1019.91 1020.03 1020.11 1020.13 1020.04
1012.09 1012.25 1012.39 1012.53 1012.67 1012.82 1013.00 1013.21 1013.46 1013.75 1014.07 1014.44 1014.83 1015.24 1015.68 1016.12 1016.57 1017.03 1017.47 1017.90 1018.32 1018.71 1019.08 1019.40 1019.68 1019.91 1020.09 1020.21 1020.27 1020.29 1020.27 1020.22 1020.17 1020.11 1020.08 1020.09 1020.12 1020.19 1020.28 1020.37 1020.41 1020.40 1020.28
1011.98 1012.13 1012.27 1012.42 1012.58 1012.75 1012.94 1013.16 1013.41 1013.69 1014.00 1014.34 1014.71 1015.10 1015.52 1015.96 1016.42 1016.89 1017.36 1017.83 1018.27 1018.69 1019.06 1019.40 1019.68 1019.91 1020.09 1020.22 1020.31 1020.37 1020.40 1020.41 1020.41 1020.42 1020.43 1020.45 1020.50 1020.55 1020.61 1020.65 1020.66 1020.61 1020.47
1012.01 1012.14 1012.28 1012.44 1012.61 1012.79 1012.99 1013.21 1013.45 1013.72 1014.00 1014.31 1014.65 1015.02 1015.42 1015.85 1016.30 1016.78 1017.27 1017.75 1018.21 1018.64 1019.02 1019.35 1019.63 1019.86 1020.03 1020.17 1020.29 1020.38 1020.46 1020.53 1020.59 1020.65 1020.70 1020.75 1020.79 1020.83 1020.85 1020.86 1020.82 1020.74 1020.58
1012.17 1012.28 1012.42 1012.57 1012.73 1012.92 1013.11 1013.33 1013.55 1013.79 1014.05 1014.33 1014.63 1014.97 1015.35 1015.76 1016.21 1016.69 1017.18 1017.66 1018.13 1018.56 1018.94 1019.26 1019.53 1019.73 1019.91 1020.05 1020.18 1020.30 1020.42 1020.54 1020.66 1020.77 1020.86 1020.93 1020.98 1021.00 1021.00 1020.97 1020.91 1020.80 1020.63
1012.40 1012.49 1012.61 1012.75 1012.91 1013.08 1013.26 1013.46 1013.66 1013.88 1014.10 1014.35 1014.62 1014.93 1015.28 1015.68 1016.12 1016.59 1017.08 1017.57 1018.03 1018.45 1018.81 1019.11 1019.35 1019.54 1019.70 1019.84 1019.97 1020.11 1020.27 1020.44 1020.61 1020.76 1020.90 1021.00 1021.06 1021.08 1021.06 1021.01 1020.92 1020.80 1020.64
1012.64 1012.72 1012.81 1012.93 1013.06 1013.21 1013.38 1013.55 1013.73 1013.92 1014.12 1014.34 1014.59 1014.87 1015.21 1015.59 1016.02 1016.49 1016.97 1017.45 1017.90 1018.30 1018.64 1018.91 1019.13 1019.29 1019.42 1019.55 1019.69 1019.85 1020.03 1020.24 1020.46 1020.66 1020.84 1020.97 1021.05 1021.08 1021.06 1021.00 1020.91 1020.79 1020.64
1012.86 1012.89 1012.96 1013.04 1013.14 1013.26 1013.40 1013.54 1013.70 1013.87 1014.05 1014.25 1014.49 1014.76 1015.09 1015.47 1015.89 1016.35 1016.83 1017.30 1017.73 1018.12 1018.43 1018.68 1018.86 1019.00 1019.11 1019.22 1019.36 1019.54 1019.75 1019.99 1020.25 1020.50 1020.72 1020.89 1021.00 1021.05 1021.04 1020.98 1020.89 1020.79 1020.66
1012.98 1012.97 1012.99 1013.03 1013.09 1013.17 1013.28 1013.40 1013.53 1013.68 1013.85 1014.05 1014.28 1014.56 1014.89 1015.27 1015.70 1016.17 1016.64 1017.11 1017.53 1017.90 1018.20 1018.42 1018.58 1018.70 1018.80 1018.91 1019.05 1019.23 1019.47 1019.75 1020.05 1020.34 1020.61 1020.82 1020.96 1021.03 1021.04 1021.00 1020.92 1020.83 1020.73
1012.99 1012.92 1012.88 1012.87 1012.88 1012.92 1012.99 1013.08 1013.20 1013.33 1013.50 1013.70 1013.94 1014.23 1014.57 1014.97 1015.42 1015.90 1016.39 1016.86 1017.28 1017.65 1017.94 1018.16 1018.31 1018.42 1018.52 1018.63 1018.78 1018.99 1019.25 1019.56 1019.90 1020.23 1020.53 1020.78 1020.96 1021.06 1021.08 1021.06 1020.99 1020.92 1020.84
1012.90 1012.76 1012.65 1012.57 1012.52 1012.52 1012.54 1012.60 1012.69 1012.82 1012.98 1013.19 1013.45 1013.76 1014.13 1014.55 1015.03 1015.53 1016.04 1016.53 1016.98 1017.36 1017.66 1017.89 1018.05 1018.18 1018.29 1018.42 1018.59 1018.82 1019.11 1019.44 1019.81 1020.18 1020.51 1020.79 1021.00 1021.12 1021.17 1021.16 1021.11 1021.04 1020.98
Thickness
5695 5694 5692 5691 5690 5690 5690 5689 5688 5690 5690 5691 5691 5691 5690 5690 5690 5689 5688 5686 5685 5683 5682 5680 5679 5678 5676 5675 5674 5672 5670 5668 5665 5662 5658 5655 5652 5649 5646 5643 5640 5637 5634
5692 5690 5690 5688 5688 5688 5687 5687 5686 5687 5687 5687 5687 5687 5687 5687 5687 5686 5684 5683 5681 5679 5678 5676 5675 5674 5672 5671 5669 5667 5665 5663 5660 5657 5654 5650 5647 5644 5641 5638 5635 5632 5628
5687 5687 5686 5685 5685 5685 5684 5683 5683 5684 5683 5683 5682 5682 5683 5682 5682 5682 5681 5679 5677 5675 5674 5672 5671 5669 5668 5666 5664 5662 5660 5658 5655 5652 5649 5646 5642 5639 5636 5632 5629 5626 5623
5682 5682 5682 5681 5681 5681 5680 5679 5679 5678 5677 5676 5676 5677 5677 5677 5677 5676 5676 5675 5673 5671 5669 5667 5666 5664 5663 5661 5659 5657 5655 5652 5649 5646 5643 5640 5637 5634 5630 5627 5624 5621 5618
5676 5676 5676 5676 5677 5676 5674 5674 5673 5672 5670 5670 5670 5671 5671 5672 5672 5671 5670 5669 5668 5666 5664 5662 5660 5659 5657 5655 5653 5651 5649 5646 5643 5640 5637 5634 5631 5628 5625 5621 5618 5615 5612
5670 5671 5671 5671 5671 5669 5668 5668 5666 5666 5665 5664 5665 5664 5665 5666 5666 5665 5664 5663 5662 5660 5658 5656 5654 5652 5651 5648 5646 5644 5642 5640 5637 5634 5631 5628 5625 5622 5618 5615 5612 5609 5605
5664 5665 5665 5665 5665 5663 5662 5662 5661 5659 5658 5659 5656 5654 5657 5660 5660 5659 5658 5657 5655 5653 5651 5649 5647 5645 5644 5641 5639 5637 5634 5632 5630 5627 5624 5621 5618 5615 5611 5608 5605 5602 5599
5658 5659 5659 5659 5659 5658 5656 5656 5655 5652 5652 5652 5649 5645 5643 5646 5650 5652 5651 5649 5647 5646 5643 5641 5639 5637 5636 5634 5631 5628 5626 5624 5622 5619 5616 5613 5610 5606 5603 5600 5597 5594 5592
5652 5653 5653 5653 5653 5652 5651 5651 5650 5648 5645 5645 5645 5641 5636 5635 5639 5641 5642 5641 5640 5638 5636 5633 5631 5629 5627 5625 5623 5620 5617 5615 5613 5611 5608 5605 5601 5598 5595 5592 5589 5586 5584
5646 5647 5647 5647 5647 5646 5645 5645 5645 5643 5641 5637 5637 5637 5636 5635 5631 5629 5631 5633 5632 5630 5628 5626 5624 5621 5619 5616 5613 5610 5608 5606 5604 5601 5599 5596 5593 5589 5586 5583 5580 5577 5575
5640 5641 5641 5641 5641 5640 5640 5639 5639 5638 5636 5633 5631 5630 5629 5628 5627 5623 5621 5621 5622 5622 5620 5618 5615 5612 5609 5606 5603 5600 5598 5596 5593 5591 5589 5586 5582 5579 5576 5573 5570 5568 5566
5633 5634 5634 5635 5635 5634 5634 5634 5634 5633 5631 5629 5626 5624 5623 5620 5619 5617 5614 5614 5613 5612 5611 5609 5606 5604 5600 5596 5593 5590 5588 5585 5582 5580 5577 5574 5570 5567 5564 5561 5559 5557 5556
5627 5628 5629 5629 5628 5628 5627 5628 5628 5626 5625 5623 5620 5619 5617 5616 5614 5611 5609 5606 5605 5603 5602 5600 5598 5595 5590 5587 5583 5580 5577 5574 5572 5569 5566 5562 5558 5555 5553 5550 5548 5546 5546
5624 5624 5623 5622 5622 5622 5622 5622 5621 5619 5618 5616 5614 5612 5610 5608 5607 5605 5602 5598 5595 5593 5593 5591 5587 5584 5580 5577 5573 5569 5566 5563 5560 5557 5554 5550 5546 5543 5540 5538 5536 5535 5535
5617 5616 5615 5615 5615 5616 5616 5615 5613 5612 5610 5608 5606 5603 5601 5600 5598 5596 5594 5592 5587 5583 5583 5581 5576 5573 5570 5566 5562 5559 5555 5552 5549 5545 5541 5538 5534 5531 5529 5527 5525 5524 5524
5610 5609 5609 5608 5608 5608 5607 5605 5604 5603 5601 5599 5597 5594 5592 5590 5589 5586 5584 5581 5579 5576 5573 5571 5567 5562 5559 5555 5551 5547 5544 5540 5537 5534 5530 5526 5523 5520 5518 5516 5514 5514 5513
5602 5601 5601 5600 5599 5599 5598 5596 5595 5593 5592 5590 5587 5585 5582 5581 5578 5575 5573 5570 5567 5565 5562 5559 5556 5552 5548 5544 5539 5536 5532 5529 5526 5522 5519 5515 5512 5509 5506 5505 5503 5503 5503
5593 5592 5592 5591 5590 5590 5589 5587 5586 5583 5581 5579 5577 5575 5573 5570 5568 5565 5562 5559 5556 5554 5551 5547 5543 5539 5536 5532 5528 5524 5521 5518 5514 5511 5507 5504 5501 5498 5496 5494 5492 5492 5492
5582 5582 5581 5580 5579 5578 5576 5576 5574 5572 5570 5568 5566 5565 5562 5559 5556 5553 5551 5548 5545 5542 5539 5536 5532 5528 5524 5520 5517 5513 5509 5506 5503 5500 5496 5493 5490 5487 5485 5484 5482 5482 5482
5571 5570 5569 5568 5567 5566 5565 5563 5562 5560 5558 5557 5555 5553 5550 5548 5545 5542 5539 5536 5533 5530 5527 5524 5521 5517 5513 5510 5506 5502 5498 5495 5492 5490 5486 5483 5480 5478 5476 5474 5473 5472 5473
5558 5557 5555 5554 5554 5553 5551 5550 5548 5547 5545 5543 5541 5540 5537 5535 5533 5531 5528 5525 5522 5519 5516 5513 5510 5506 5503 5499 5496 5494 5490 5486 5482 5479 5476 5473 5471 5469 5467 5465 5463 5463 5464
5543 5542 5541 5540 5538 5538 5537 5536 5534 5532 5531 5529 5527 5525 5523 5521 5519 5518 5516 5515 5512 5509 5506 5503 5501 5498 5495 5491 5488 5484 5480 5475 5472 5470 5466 5463 5462 5459 5457 5455 5454 5454 5455
5527 5526 5525 5524 5523 5523 5522 5520 5519 5517 5516 5514 5512 5510 5509 5508 5506 5503 5502 5501 5499 5497 5496 5494 5492 5490 5487 5484 5479 5474 5471 5467 5465 5462 5458 5454 5453 5450 5449 5447 5446 5446 5446
5509 5508 5508 5507 5506 5506 5506 5505 5503 5501 5500 5500 5499 5498 5496 5495 5493 5491 5489 5487 5485 5484 5484 5482 5481 5479 5478 5476 5472 5467 5463 5458 5454 5452 5450 5446 5444 5442 5441 5439 5438 5438 5438
5490 5490 5490 5489 5488 5488 5488 5488 5487 5485 5484 5484 5485 5484 5483 5482 5481 5479 5476 5474 5472 5471 5470 5470 5469 5468 5466 5464 5461 5457 5452 5448 5444 5442 5440 5438 5436 5434 5432 5430 5430 5430 5430
5472 5471 5470 5470 5470 5471 5472 5471 5471 5470 5470 5470 5470 5471 5472 5471 5470 5469 5465 5463 5461 5459 5458 5457 5456 5455 5454 5452 5451 5448 5444 5440 5438 5434 5432 5430 5428 5425 5422 5422 5422 5422 5423